[Date Prev][Date Next][Thread Prev][Thread Next] - [Date Index][Thread Index][Author Index]

2 Line ISS Keps 1-4



ISS 
1 25544U 98067A   05004.36358796  .00025203  00000-0  19019-3 0  5122
2 25544  51.6396  18.5829 0003382 161.1496  41.4908 15.72304938349924
----
Via the sarex mailing list at AMSAT.ORG courtesy of AMSAT-NA.
To unsubscribe, send "unsubscribe sarex" to Majordomo@amsat.org



AMSAT Top AMSAT Home